Change the Weather History Date:

Sunday, November 17, 2013

  Actual Average (KGHW) Record (KGHW)
Temperature  
Mean Temperature 35 °F -  
Max Temperature 43 °F 38 °F 71 °F (1953)
Min Temperature 27 °F 22 °F -7 °F (1959)
Degree Days  
Heating Degree Days 30    
Moisture  
Dew Point 32 °F    
Average Humidity 88    
Maximum Humidity 100    
Minimum Humidity 77    
Precipitation  
Precipitation 0.00 in - - ()
Sea Level Pressure  
Sea Level Pressure 29.51 in    
Wind  
Wind Speed 14 mph (WNW)    
Max Wind Speed 25 mph    
Max Gust Speed 33 mph    
Visibility 9 miles    
Events      
Averages and records for this station are not official NWS values.
T = Trace of Precipitation, MM = Missing Value Source: NWS Daily Summary

Daily Weather History Graph

Daily Weather History Graph

Search for Another Location

Airport or City:

Trip Planner

Search our weather history database for the weather conditions in past years. The results will help you decide how hot, cold, wet, or windy it might be!

Date:

Astronomy

Nov. 17, 2013 Rise Set
Actual Time 7:22 AM CST 4:46 PM CST
Civil Twilight 6:50 AM CST 5:19 PM CST
Nautical Twilight 6:13 AM CST 5:55 PM CST
Astronomical Twilight 5:38 AM CST 6:30 PM CST
Moon 5:04 PM CST (11/17) 7:16 AM CST (11/17)
Length of Visible Light 10h 29m
Length of Day
9h 24m
Full, 100% of the Moon is Illuminated
Nov 17
Full
Nov 25
Last Quarter
Dec 2
New
Dec 9
First Quarter
Dec 17
Full

Hourly Weather History & Observations

Time (CST) Temp. Windchill Dew Point Humidity Pressure Visibility Wind Dir Wind Speed Gust Speed Precip Events Conditions
12:14 AM 43.7 °F 39.7 °F 43.7 °F 100% 29.27 in 1.2 mi SW 6.9 mph - N/A   Overcast
12:33 AM 43.3 °F 38.1 °F 43.3 °F 100% 29.28 in 1.5 mi SW 9.2 mph - N/A   Overcast
12:54 AM 43.2 °F 37.4 °F 43.2 °F 100% 29.28 in 3.0 mi WSW 10.4 mph - N/A   Overcast
1:14 AM 42.8 °F 37.5 °F 42.8 °F 100% 29.28 in 3.0 mi WSW 9.2 mph - N/A   Overcast
1:33 AM 42.3 °F 35.9 °F 42.3 °F 100% 29.28 in 3.0 mi WSW 11.5 mph 16.1 mph N/A   Overcast
1:54 AM 41.5 °F 34.6 °F 41.4 °F 99% 29.27 in 5.0 mi West 12.7 mph 17.3 mph N/A   Overcast
2:13 AM 41.0 °F 34.3 °F 41.0 °F 100% 29.28 in 5.0 mi West 11.5 mph - N/A   Overcast
2:33 AM 40.6 °F 33.8 °F 40.5 °F 99% 29.29 in 7.0 mi West 11.5 mph - N/A   Overcast
2:54 AM 40.5 °F 34.1 °F 40.1 °F 99% 29.29 in 5.0 mi West 10.4 mph - N/A   Overcast
3:13 AM 40.1 °F 32.4 °F 39.7 °F 99% 29.29 in 5.0 mi West 13.8 mph 17.3 mph N/A   Overcast
3:34 AM 39.6 °F 32.1 °F 39.2 °F 99% 29.29 in 7.0 mi West 12.7 mph - N/A   Overcast
3:54 AM 39.2 °F 32.5 °F 38.5 °F 97% 29.28 in 7.0 mi WNW 10.4 mph - N/A   Overcast
4:13 AM 39.2 °F 33.0 °F 38.3 °F 97% 29.30 in 7.0 mi West 9.2 mph - N/A   Overcast
4:34 AM 38.8 °F 32.6 °F 38.3 °F 98% 29.31 in 7.0 mi West 9.2 mph - N/A   Overcast
4:53 AM 38.8 °F 31.6 °F 37.4 °F 95% 29.32 in 10.0 mi WNW 11.5 mph - N/A   Overcast
5:13 AM 37.9 °F 30.5 °F 36.5 °F 95% 29.33 in 10.0 mi WNW 11.5 mph 17.3 mph N/A   Overcast
5:34 AM 37.6 °F 30.5 °F 36.1 °F 95% 29.34 in 10.0 mi West 10.4 mph - N/A   Overcast
5:53 AM 37.4 °F 29.8 °F 35.6 °F 93% 29.35 in 10.0 mi WNW 11.5 mph - N/A   Overcast
6:13 AM 37.0 °F 28.9 °F 35.2 °F 93% 29.35 in 10.0 mi WNW 12.7 mph 19.6 mph N/A   Overcast
6:34 AM 36.9 °F 28.2 °F 35.1 °F 93% 29.35 in 10.0 mi WNW 13.8 mph 18.4 mph N/A   Overcast
6:53 AM 36.9 °F 28.2 °F 34.7 °F 92% 29.36 in 10.0 mi NW 13.8 mph - N/A   Overcast
7:14 AM 36.9 °F 29.6 °F 34.7 °F 92% 29.36 in 10.0 mi NW 10.4 mph - N/A   Overcast
7:34 AM 37.0 °F 28.5 °F 34.9 °F 92% 29.36 in 10.0 mi NW 13.8 mph 18.4 mph N/A   Overcast
7:53 AM 37.0 °F 28.9 °F 35.1 °F 93% 29.36 in 10.0 mi NW 12.7 mph - N/A   Overcast
8:14 AM 37.4 °F 30.3 °F 35.1 °F 91% 29.39 in 10.0 mi WNW 10.4 mph 19.6 mph N/A   Overcast
8:34 AM 37.6 °F 29.6 °F 35.4 °F 92% 29.39 in 10.0 mi NW 12.7 mph 16.1 mph N/A   Overcast
8:53 AM 37.9 °F 30.0 °F 35.6 °F 91% 29.38 in 10.0 mi NW 12.7 mph - N/A   Overcast
9:14 AM 37.9 °F 29.6 °F 35.4 °F 91% 29.39 in 10.0 mi NW 13.8 mph - N/A   Overcast
9:34 AM 38.3 °F 30.1 °F 35.2 °F 89% 29.40 in 10.0 mi NW 13.8 mph 18.4 mph N/A   Overcast
9:53 AM 38.3 °F 29.3 °F 35.1 °F 88% 29.42 in 10.0 mi WNW 16.1 mph 20.7 mph N/A   Overcast
10:14 AM 37.8 °F 28.3 °F 34.3 °F 87% 29.43 in 10.0 mi NW 17.3 mph 23.0 mph N/A   Overcast
10:34 AM 37.9 °F 28.9 °F 34.7 °F 88% 29.43 in 10.0 mi WNW 16.1 mph 20.7 mph N/A   Overcast
10:53 AM 38.5 °F 28.6 °F 34.5 °F 86% 29.44 in 10.0 mi WNW 19.6 mph 27.6 mph N/A   Overcast
11:14 AM 38.5 °F 28.6 °F 34.0 °F 84% 29.44 in 10.0 mi WNW 19.6 mph 26.5 mph N/A   Overcast
11:34 AM 38.7 °F 29.1 °F 34.0 °F 83% 29.44 in 10.0 mi WNW 18.4 mph 26.5 mph N/A   Overcast
11:53 AM 38.1 °F 28.8 °F 34.5 °F 87% 29.45 in 10.0 mi WNW 17.3 mph 23.0 mph N/A   Overcast
12:14 PM 37.6 °F 28.1 °F 34.2 °F 87% 29.46 in 10.0 mi WNW 17.3 mph 25.3 mph N/A   Overcast
12:33 PM 37.0 °F 27.4 °F 33.4 °F 87% 29.47 in 10.0 mi WNW 17.3 mph 23.0 mph N/A   Overcast
12:53 PM 37.4 °F 27.5 °F 33.1 °F 84% 29.48 in 10.0 mi WNW 18.4 mph 26.5 mph N/A   Overcast
1:14 PM 36.5 °F 25.4 °F 32.2 °F 84% 29.49 in 10.0 mi WNW 21.9 mph 28.8 mph N/A   Overcast
1:33 PM 35.2 °F 25.0 °F 32.0 °F 88% 29.50 in 10.0 mi WNW 17.3 mph 25.3 mph N/A   Overcast
1:53 PM 35.1 °F 24.1 °F 32.0 °F 89% 29.52 in 10.0 mi WNW 19.6 mph 27.6 mph N/A   Overcast
2:14 PM 34.7 °F 26.4 °F 31.5 °F 88% 29.53 in 10.0 mi WNW 11.5 mph - N/A   Overcast
2:33 PM 34.2 °F 22.3 °F 30.9 °F 88% 29.54 in 10.0 mi WNW 21.9 mph 28.8 mph N/A   Overcast
2:53 PM 34.3 °F 23.5 °F 30.6 °F 86% 29.55 in 10.0 mi WNW 18.4 mph 27.6 mph N/A   Overcast
3:14 PM 33.3 °F 22.1 °F 29.8 °F 87% 29.57 in 10.0 mi WNW 18.4 mph 26.5 mph N/A   Overcast
3:33 PM 32.9 °F 19.8 °F 29.1 °F 86% 29.58 in 10.0 mi WNW 25.3 mph 31.1 mph N/A   Overcast
3:53 PM 32.0 °F 19.2 °F 28.0 °F 85% 29.60 in 10.0 mi WNW 23.0 mph 31.1 mph N/A   Overcast
4:14 PM 31.5 °F 20.9 °F 28.6 °F 89% 29.61 in 10.0 mi WNW 15.0 mph 25.3 mph N/A   Overcast
4:33 PM 30.9 °F 18.4 °F 27.3 °F 86% 29.63 in 10.0 mi WNW 20.7 mph 28.8 mph N/A   Overcast
4:54 PM 30.7 °F 19.2 °F 27.0 °F 86% 29.63 in 10.0 mi WNW 17.3 mph 29.9 mph N/A   Overcast
5:13 PM 30.7 °F 18.8 °F 26.8 °F 85% 29.65 in 10.0 mi WNW 18.4 mph 28.8 mph N/A   Overcast
5:33 PM 30.2 °F 17.1 °F 26.6 °F 86% 29.67 in 10.0 mi WNW 21.9 mph 27.6 mph N/A   Overcast
5:54 PM 30.2 °F 16.5 °F 25.5 °F 83% 29.69 in 10.0 mi West 24.2 mph 32.2 mph N/A   Overcast
6:13 PM 29.8 °F 16.3 °F 24.8 °F 81% 29.70 in 10.0 mi WNW 23.0 mph 32.2 mph N/A   Overcast
6:33 PM 30.0 °F 17.2 °F 24.8 °F 81% 29.71 in 10.0 mi WNW 20.7 mph 28.8 mph N/A   Overcast
6:54 PM 29.3 °F 15.6 °F 24.3 °F 81% 29.73 in 10.0 mi WNW 23.0 mph 32.2 mph N/A   Overcast
7:13 PM 29.3 °F 15.6 °F 24.4 °F 82% 29.74 in 10.0 mi WNW 23.0 mph 29.9 mph N/A   Overcast
7:33 PM 28.9 °F 15.1 °F 23.2 °F 79% 29.74 in 10.0 mi WNW 23.0 mph 32.2 mph N/A   Overcast
7:54 PM 29.1 °F 15.4 °F 23.5 °F 80% 29.75 in 10.0 mi WNW 23.0 mph 33.4 mph N/A   Overcast
8:13 PM 29.1 °F 16.4 °F 23.7 °F 80% 29.77 in 10.0 mi WNW 19.6 mph 27.6 mph N/A   Overcast
8:33 PM 29.1 °F 16.4 °F 23.7 °F 80% 29.77 in 10.0 mi NW 19.6 mph 24.2 mph N/A   Overcast
8:54 PM 28.9 °F 16.9 °F 23.2 °F 79% 29.78 in 10.0 mi WNW 17.3 mph 25.3 mph N/A   Overcast
9:13 PM 28.8 °F 15.5 °F 23.0 °F 79% 29.79 in 10.0 mi WNW 20.7 mph 25.3 mph N/A   Overcast
9:33 PM 28.4 °F 13.8 °F 22.5 °F 78% 29.79 in 10.0 mi NW 25.3 mph 33.4 mph N/A   Overcast
9:54 PM 28.4 °F 16.6 °F 22.1 °F 77% 29.82 in 10.0 mi WNW 16.1 mph 31.1 mph N/A   Overcast
10:13 PM 28.0 °F 14.6 °F 22.1 °F 78% 29.82 in 10.0 mi WNW 20.7 mph 28.8 mph N/A   Overcast
10:33 PM 27.7 °F 14.5 °F 21.6 °F 78% 29.82 in 10.0 mi WNW 19.6 mph 28.8 mph N/A   Overcast
10:54 PM 27.5 °F 14.6 °F 21.2 °F 77% 29.83 in 10.0 mi WNW 18.4 mph 28.8 mph N/A   Overcast
11:13 PM 27.5 °F 13.5 °F 21.6 °F 78% 29.84 in 10.0 mi WNW 21.9 mph 31.1 mph N/A   Overcast
11:33 PM 27.1 °F 13.4 °F 21.4 °F 79% 29.85 in 10.0 mi WNW 20.7 mph 28.8 mph N/A   Overcast
11:54 PM 27.1 °F 13.1 °F 21.7 °F 80% 29.85 in 10.0 mi WNW 21.9 mph 27.6 mph N/A   Overcast